DRAGON CRS-13

Last updated on Mon Jan 15 2018 00:15:03 GMT+0000 (Coordinated Universal Time)

1 43060U 17080A 18013.43819444 -.00000207 00000-0 40301-5 0 9992 2 43060 51.6410 69.9362 0005652 135.1181 288.6702 15.56261152 4488
UTC large
Height (km)
Speed (km/s)
/
Latitude / Longitude
Inclination (degrees)
Orbital Period (minutes)
Azimuth
Elevation
Range (km)
Doppler Factor

Next 0 passes for location: London (51.5072 / 0.1276)

Sorry there are no passes over London.